Alma, MI

9:21 AM EST on November 13, 2019 (GMT -0500)
Gratiot Community

Weather History for KAMN - May, 2019

Change the Weather History Date:

Saturday, May 25, 2019

  Actual Average Record
Temperature  
Mean Temperature 69 °F -  
Max Temperature 79 °F 72 °F 89 °F (1977)
Min Temperature 59 °F 48 °F 30 °F (1992)
Cooling Degree Days 4    
Growing Degree Days 19 (Base 50)    
Moisture  
Dew Point 61 °F    
Average Humidity 78    
Maximum Humidity 93    
Minimum Humidity 55    
Precipitation  
Precipitation 0.00 in - - ()
Sea Level Pressure  
Sea Level Pressure 29.90 in    
Wind  
Wind Speed 9 mph (SSW)    
Max Wind Speed 20 mph    
Max Gust Speed 26 mph    
Visibility 9 miles    
Events Rain    
Averages and records for this station are not official NWS values.
T = Trace of Precipitation, MM = Missing Value Source: NWS Daily Summary

Daily Weather History Graph

Daily Weather History Graph

Search for Another Location

Airport or City:

Astronomy

May. 25, 2019 Rise Set
Actual Time 6:05 AM EDT 9:06 PM EDT
Civil Twilight 5:31 AM EDT 9:40 PM EDT
Nautical Twilight 4:48 AM EDT 10:23 PM EDT
Astronomical Twilight 3:57 AM EDT 11:15 PM EDT
Moon 2:04 AM EDT (5/25) 12:06 PM EDT (5/25)
Length of Visible Light 16h 08m
Length of Day
15h 00m
Waning Gibbous, 60% of the Moon is Illuminated
May 25
Waning Gibbous
May 26
Last Quarter
Jun 3
New
Jun 10
First Quarter
Jun 17
Full

Hourly Weather History & Observations

Time (EDT) Temp. Dew Point Humidity Pressure Visibility Wind Dir Wind Speed Gust Speed Precip Events Conditions
12:15 AM 61.0 °F 56.7 °F 86% 30.00 in 10.0 mi East 6.9 mph - N/A   Overcast
12:16 AM 61.0 °F 56.7 °F 86% 30.00 in 10.0 mi East 5.8 mph - N/A   Overcast
12:35 AM 61.0 °F 56.7 °F 86% 29.97 in 10.0 mi East 5.8 mph - N/A   Overcast
12:55 AM 61.3 °F 56.7 °F 85% 29.97 in 10.0 mi ESE 8.1 mph - N/A   Overcast
1:15 AM 61.9 °F 56.3 °F 82% 29.97 in 10.0 mi SE 6.9 mph - N/A   Overcast
1:16 AM 61.9 °F 56.3 °F 82% 29.97 in 10.0 mi SE 6.9 mph - N/A   Overcast
1:35 AM 61.2 °F 56.5 °F 85% 29.95 in 3.0 mi ESE 10.4 mph - N/A Rain Heavy Rain
1:36 AM 61.0 °F 56.5 °F 85% 29.95 in 3.0 mi ESE 10.4 mph - N/A Rain Heavy Rain
1:55 AM 60.3 °F 57.0 °F 89% 29.97 in 3.0 mi East 8.1 mph - N/A Rain Heavy Rain
1:56 AM 60.1 °F 57.0 °F 90% 29.97 in 4.0 mi ENE 8.1 mph - N/A Rain Rain
2:15 AM 59.9 °F 57.2 °F 91% 29.99 in 2.5 mi NNW 3.5 mph - N/A Rain Heavy Rain
2:16 AM 59.9 °F 57.2 °F 91% 30.00 in 2.5 mi WNW 6.9 mph - N/A Rain Heavy Rain
2:35 AM 60.1 °F 57.7 °F 92% 29.98 in 3.0 mi NNE 4.6 mph - N/A Rain Rain
2:36 AM 60.1 °F 57.9 °F 93% 29.98 in 3.0 mi North 5.8 mph - N/A Rain Light Rain
2:55 AM 60.4 °F 58.3 °F 93% 29.96 in 5.0 mi SE 5.8 mph - N/A Rain Rain
3:15 AM 61.0 °F 58.6 °F 92% 29.96 in 5.0 mi ESE 4.6 mph - N/A Rain Heavy Rain
3:35 AM 60.1 °F 57.9 °F 93% 29.95 in 3.0 mi ESE 9.2 mph - N/A Rain Heavy Rain
3:55 AM 59.2 °F 57.2 °F 93% 29.94 in 7.0 mi SE 5.8 mph - N/A Rain Heavy Rain
4:15 AM 59.4 °F 57.2 °F 93% 29.93 in 4.0 mi ESE 10.4 mph - N/A Rain Heavy Rain
4:16 AM 59.4 °F 57.2 °F 93% 29.92 in 4.0 mi ESE 10.4 mph - N/A Rain Light Rain
4:35 AM 59.9 °F 57.6 °F 92% 29.92 in 10.0 mi SSE 8.1 mph 17.3 mph N/A Rain Light Rain
4:36 AM 59.9 °F 57.6 °F 92% 29.92 in 10.0 mi SE 8.1 mph 17.3 mph N/A Rain Rain
4:55 AM 60.1 °F 57.2 °F 90% 29.91 in 7.0 mi SE 17.3 mph 23.0 mph N/A Rain Heavy Rain
4:56 AM 60.1 °F 57.2 °F 90% 29.90 in 7.0 mi ESE 19.6 mph 25.3 mph N/A Rain Heavy Rain
5:15 AM 59.9 °F 57.2 °F 91% 29.90 in 10.0 mi ESE 6.9 mph - N/A   Overcast
5:16 AM 59.9 °F 57.2 °F 91% 29.91 in 10.0 mi ESE 5.8 mph - N/A   Overcast
5:35 AM 59.5 °F 57.2 °F 92% 29.89 in 10.0 mi ESE 10.4 mph - N/A Rain Light Rain
5:55 AM 59.0 °F 56.8 °F 93% 29.89 in 10.0 mi SE 8.1 mph - N/A   Scattered Clouds
5:56 AM 59.0 °F 56.8 °F 93% 29.89 in 10.0 mi ESE 9.2 mph - N/A   Scattered Clouds
6:15 AM 59.0 °F 56.7 °F 92% 29.89 in 10.0 mi SE 5.8 mph - N/A   Scattered Clouds
6:35 AM 59.0 °F 56.7 °F 92% 29.88 in 7.0 mi SE 5.8 mph - N/A   Scattered Clouds
6:55 AM 59.2 °F 56.8 °F 92% 29.88 in 7.0 mi SE 6.9 mph - N/A   Mostly Cloudy
7:15 AM 59.2 °F 57.0 °F 93% 29.88 in 7.0 mi SE 4.6 mph - N/A   Mostly Cloudy
7:35 AM 59.7 °F 57.2 °F 91% 29.89 in 7.0 mi Calm Calm - N/A   Scattered Clouds
7:55 AM 59.9 °F 57.4 °F 91% 29.87 in 7.0 mi ESE 3.5 mph - N/A   Scattered Clouds
8:15 AM 61.3 °F 58.6 °F 91% 29.87 in 7.0 mi SSE 3.5 mph - N/A   Mostly Cloudy
8:35 AM 62.6 °F 59.2 °F 89% 29.86 in 7.0 mi South 4.6 mph - N/A   Scattered Clouds
8:36 AM 62.6 °F 59.2 °F 89% 29.86 in 7.0 mi South 5.8 mph - N/A   Scattered Clouds
8:55 AM 63.9 °F 60.6 °F 89% 29.86 in 10.0 mi South 4.6 mph - N/A   Clear
8:56 AM 64.0 °F 60.6 °F 89% 29.86 in 10.0 mi SSW 3.5 mph - N/A   Clear
9:15 AM 66.7 °F 62.2 °F 85% 29.86 in 10.0 mi SSW 5.8 mph - N/A   Scattered Clouds
9:16 AM 66.6 °F 62.2 °F 86% 29.86 in 10.0 mi SSW 6.9 mph - N/A   Scattered Clouds
9:35 AM 67.5 °F 63.0 °F 85% 29.87 in 10.0 mi SW 8.1 mph - N/A   Scattered Clouds
9:36 AM 67.5 °F 63.1 °F 86% 29.87 in 10.0 mi SW 6.9 mph - N/A   Scattered Clouds
9:55 AM 69.4 °F 64.0 °F 83% 29.87 in 10.0 mi SW 8.1 mph - N/A   Scattered Clouds
10:15 AM 70.7 °F 65.5 °F 83% 29.87 in 10.0 mi SW 6.9 mph - N/A   Mostly Cloudy
10:16 AM 71.1 °F 65.7 °F 83% 29.87 in 10.0 mi SW 6.9 mph - N/A   Mostly Cloudy
10:35 AM 72.5 °F 66.6 °F 82% 29.86 in 10.0 mi SW 5.8 mph - N/A   Overcast
10:55 AM 76.1 °F 67.6 °F 75% 29.84 in 10.0 mi SSW 11.5 mph 17.3 mph N/A   Scattered Clouds
11:15 AM 77.2 °F 68.0 °F 73% 29.85 in 10.0 mi SW 12.7 mph 18.4 mph N/A   Scattered Clouds
11:35 AM 76.3 °F 67.3 °F 74% 29.86 in 10.0 mi WSW 8.1 mph 24.2 mph N/A   Mostly Cloudy
11:55 AM 75.7 °F 66.6 °F 73% 29.87 in 10.0 mi WSW 15.0 mph 20.7 mph N/A   Overcast
11:56 AM 75.9 °F 66.6 °F 73% 29.87 in 10.0 mi WSW 15.0 mph 21.9 mph N/A   Overcast
12:15 PM 78.4 °F 67.1 °F 68% 29.86 in 10.0 mi SW 13.8 mph 23.0 mph N/A   Mostly Cloudy
12:16 PM 78.6 °F 67.1 °F 68% 29.86 in 10.0 mi SW 13.8 mph 23.0 mph N/A   Mostly Cloudy
12:35 PM 78.3 °F 66.4 °F 67% 29.87 in 10.0 mi WSW 16.1 mph 23.0 mph N/A   Mostly Cloudy
12:36 PM 78.3 °F 66.4 °F 67% 29.87 in 10.0 mi WSW 17.3 mph 23.0 mph N/A   Mostly Cloudy
12:55 PM 77.9 °F 66.0 °F 67% 29.88 in 10.0 mi WSW 13.8 mph 23.0 mph N/A   Mostly Cloudy
1:15 PM 76.5 °F 65.3 °F 68% 29.88 in 10.0 mi WSW 12.7 mph 23.0 mph N/A   Mostly Cloudy
1:35 PM 76.3 °F 65.7 °F 70% 29.88 in 10.0 mi WSW 12.7 mph 19.6 mph N/A   Overcast
1:55 PM 75.7 °F 65.8 °F 71% 29.89 in 10.0 mi WSW 13.8 mph 24.2 mph N/A   Overcast
2:15 PM 74.8 °F 64.6 °F 70% 29.89 in 10.0 mi WSW 16.1 mph 25.3 mph N/A   Overcast
2:16 PM 75.0 °F 64.6 °F 70% 29.89 in 10.0 mi WSW 17.3 mph 25.3 mph N/A   Overcast
2:35 PM 76.8 °F 64.0 °F 65% 29.89 in 10.0 mi WSW 15.0 mph 26.5 mph N/A   Mostly Cloudy
2:36 PM 77.0 °F 64.0 °F 64% 29.89 in 10.0 mi WSW 16.1 mph 26.5 mph N/A   Mostly Cloudy
2:55 PM 77.9 °F 62.8 °F 60% 29.88 in 10.0 mi WSW 18.4 mph 25.3 mph N/A   Overcast
2:56 PM 77.9 °F 62.6 °F 59% 29.88 in 10.0 mi WSW 19.6 mph 25.3 mph N/A   Overcast
3:15 PM 77.9 °F 62.8 °F 60% 29.87 in 10.0 mi SW 16.1 mph 21.9 mph N/A   Mostly Cloudy
3:16 PM 77.9 °F 62.4 °F 59% 29.87 in 10.0 mi SW 13.8 mph 21.9 mph N/A   Mostly Cloudy
3:35 PM 78.1 °F 63.0 °F 60% 29.87 in 10.0 mi WSW 16.1 mph 24.2 mph N/A   Scattered Clouds
3:55 PM 78.1 °F 63.1 °F 60% 29.87 in 10.0 mi WSW 15.0 mph 21.9 mph N/A   Scattered Clouds
3:56 PM 78.3 °F 63.1 °F 60% 29.87 in 10.0 mi WSW 18.4 mph 25.3 mph N/A   Scattered Clouds
4:15 PM 77.5 °F 62.6 °F 60% 29.88 in 10.0 mi WSW 12.7 mph 20.7 mph N/A   Mostly Cloudy
4:35 PM 79.0 °F 62.4 °F 57% 29.87 in 10.0 mi WSW 17.3 mph 21.9 mph N/A   Scattered Clouds
4:55 PM 79.0 °F 61.7 °F 55% 29.87 in 10.0 mi WSW 13.8 mph 23.0 mph N/A   Scattered Clouds
5:15 PM 79.5 °F 63.0 °F 57% 29.88 in 10.0 mi WSW 13.8 mph 21.9 mph N/A   Scattered Clouds
5:35 PM 77.9 °F 62.2 °F 58% 29.89 in 10.0 mi WSW 15.0 mph 23.0 mph N/A   Scattered Clouds
5:36 PM 77.9 °F 62.4 °F 59% 29.89 in 10.0 mi WSW 15.0 mph 23.0 mph N/A   Scattered Clouds
5:55 PM 77.5 °F 62.1 °F 59% 29.89 in 10.0 mi WSW 12.7 mph 21.9 mph N/A   Scattered Clouds
6:15 PM 77.4 °F 62.6 °F 60% 29.89 in 10.0 mi SW 15.0 mph 21.9 mph N/A   Scattered Clouds
6:35 PM 77.0 °F 62.8 °F 61% 29.89 in 10.0 mi SW 15.0 mph 23.0 mph N/A   Scattered Clouds
6:55 PM 76.1 °F 62.8 °F 63% 29.90 in 10.0 mi WSW 16.1 mph 24.2 mph N/A   Scattered Clouds
7:15 PM 76.1 °F 63.3 °F 64% 29.90 in 10.0 mi WSW 13.8 mph 18.4 mph N/A   Clear
7:16 PM 76.1 °F 63.3 °F 64% 29.90 in 10.0 mi WSW 15.0 mph 18.4 mph N/A   Clear
7:35 PM 76.1 °F 63.1 °F 64% 29.90 in 10.0 mi SW 11.5 mph 17.3 mph N/A   Clear
7:36 PM 76.1 °F 63.0 °F 64% 29.90 in 10.0 mi SW 10.4 mph 17.3 mph N/A   Clear
7:55 PM 75.4 °F 62.6 °F 64% 29.91 in 10.0 mi WSW 13.8 mph 17.3 mph N/A   Clear
7:56 PM 75.2 °F 62.6 °F 65% 29.91 in 10.0 mi WSW 12.7 mph 17.3 mph N/A   Clear
8:15 PM 74.3 °F 63.0 °F 68% 29.91 in 10.0 mi WSW 8.1 mph - N/A   Clear
8:35 PM 73.2 °F 63.3 °F 71% 29.91 in 10.0 mi SW 10.4 mph - N/A   Clear
8:36 PM 73.0 °F 63.1 °F 71% 29.91 in 10.0 mi SW 9.2 mph - N/A   Clear
8:55 PM 72.5 °F 62.6 °F 71% 29.91 in 10.0 mi SW 8.1 mph - N/A   Clear
8:56 PM 72.3 °F 62.6 °F 71% 29.91 in 10.0 mi SW 9.2 mph - N/A   Clear
9:15 PM 71.1 °F 62.2 °F 74% 29.91 in 10.0 mi SW 6.9 mph - N/A   Clear
9:35 PM 70.7 °F 62.2 °F 75% 29.91 in 10.0 mi SW 5.8 mph - N/A   Clear
9:36 PM 70.7 °F 62.2 °F 75% 29.91 in 10.0 mi SW 5.8 mph - N/A   Clear
9:55 PM 69.4 °F 62.2 °F 78% 29.91 in 10.0 mi SW 4.6 mph - N/A   Clear
10:15 PM 69.1 °F 62.1 °F 78% 29.91 in 10.0 mi SSW 3.5 mph - N/A   Clear
10:16 PM 69.1 °F 62.1 °F 78% 29.91 in 10.0 mi SSW 3.5 mph - N/A   Clear
10:35 PM 68.0 °F 62.1 °F 81% 29.91 in 10.0 mi SSW 5.8 mph - N/A   Clear
10:55 PM 67.8 °F 62.4 °F 83% 29.91 in 10.0 mi SSW 4.6 mph - N/A   Clear
11:15 PM 68.4 °F 63.1 °F 83% 29.91 in 10.0 mi SSW 5.8 mph - N/A   Clear
11:35 PM 68.5 °F 63.5 °F 84% 29.91 in 10.0 mi SW 5.8 mph - N/A   Clear
11:55 PM 68.5 °F 63.1 °F 83% 29.91 in 10.0 mi SW 8.1 mph - N/A   Clear